Weather History for Omak, WA

Change the Weather History Date:

Monday, November 5, 2012

  Actual Average Record
Temperature  
Mean Temperature 52 °F 40 °F  
Max Temperature 61 °F 50 °F 61 °F (2012)
Min Temperature 43 °F 31 °F 10 °F (2003)
Degree Days  
Heating Degree Days 13 25  
Month to date heating degree days 72 120  
Since 1 July heating degree days 608 780  
Cooling Degree Days 0 0  
Month to date cooling degree days 0 0  
Year to date cooling degree days 629 665  
Growing Degree Days 2 (Base 50)    
Moisture  
Dew Point 47 °F    
Average Humidity 79    
Maximum Humidity 93    
Minimum Humidity 64    
Precipitation  
Precipitation 0.00 in 0.06 in 0.45 in (1934)
Month to date precipitation 0.20 0.30  
Year to date precipitation 12.30 11.00  
Sea Level Pressure  
Sea Level Pressure 30.20 in    
Wind  
Wind Speed 4 mph (NNW)    
Max Wind Speed 12 mph    
Max Gust Speed 16 mph    
Visibility 10 miles    
Events      
T = Trace of Precipitation, MM = Missing Value Source: NWS Daily Summary

Daily Weather History Graph

Daily Weather History Graph

Search for Another Location

Airport:

Trip Planner

Search our weather history database for the weather conditions in past years. The results will help you decide how hot, cold, wet, or windy it might be!

Date:

Astronomy

Nov. 05, 2012 Rise Set
Actual Time 6:51 AM PST 4:31 PM PST
Civil Twilight 6:17 AM PST 5:04 PM PST
Nautical Twilight 5:40 AM PST 5:41 PM PST
Astronomical Twilight 5:04 AM PST 6:18 PM PST
Moon 10:15 PM PST (11/5) 12:14 PM PST (11/5)
Length of Visible Light 10h 46m
Length of Day
9h 40m
Waning Gibbous, 62% of the Moon is Illuminated
Nov 5
Waning Gibbous
Nov 6
Last Quarter
Nov 13
New
Nov 20
First Quarter
Nov 28
Full

Hourly Weather History & Observations

Time (PST) Temp. Dew Point Humidity Pressure Visibility Wind Dir Wind Speed Gust Speed Precip Events Conditions
12:53 AM 52.0 °F 48.0 °F 86% 30.16 in 10.0 mi South 5.8 mph - N/A   Clear
1:53 AM 52.0 °F 48.0 °F 86% 30.14 in 10.0 mi SSW 8.1 mph - N/A   Clear
2:53 AM 50.0 °F 46.9 °F 89% 30.12 in 10.0 mi SSE 4.6 mph - N/A   Clear
3:53 AM 48.9 °F 46.9 °F 93% 30.10 in 10.0 mi ENE 5.8 mph - N/A   Clear
4:53 AM 48.0 °F 46.0 °F 93% 30.10 in 10.0 mi South 8.1 mph - N/A   Clear
5:53 AM 46.9 °F 45.0 °F 93% 30.14 in 10.0 mi North 10.4 mph - N/A   Clear
6:53 AM 48.9 °F 46.9 °F 93% 30.17 in 10.0 mi NNW 5.8 mph - N/A   Clear
7:15 AM 50.0 °F 46.4 °F 87% 30.17 in 10.0 mi NW 6.9 mph - N/A   Mostly Cloudy
7:38 AM 50.0 °F 46.4 °F 87% 30.19 in 10.0 mi West 3.5 mph - N/A   Partly Cloudy
7:53 AM 50.0 °F 46.0 °F 86% 30.22 in 10.0 mi Calm Calm - N/A   Clear
8:53 AM 54.0 °F 48.9 °F 83% 30.22 in 10.0 mi North 4.6 mph - N/A   Clear
9:53 AM 57.0 °F 48.9 °F 74% 30.24 in 10.0 mi North 6.9 mph - N/A   Clear
10:53 AM 61.0 °F 50.0 °F 67% 30.25 in 10.0 mi NNE 3.5 mph - N/A   Clear
11:53 AM 59.0 °F 50.0 °F 72% 30.24 in 8.0 mi Calm Calm - N/A   Clear
12:53 PM 61.0 °F 50.0 °F 67% 30.22 in 10.0 mi Calm Calm - N/A   Clear
1:53 PM 61.0 °F 48.9 °F 64% 30.22 in 10.0 mi North 8.1 mph - N/A   Clear
2:53 PM 59.0 °F 48.9 °F 69% 30.24 in 10.0 mi Calm Calm - N/A   Clear
3:53 PM 57.9 °F 48.9 °F 72% 30.24 in 10.0 mi SW 4.6 mph - N/A   Clear
4:53 PM 53.1 °F 48.0 °F 83% 30.24 in 10.0 mi Calm Calm - N/A   Clear
5:53 PM 48.9 °F 46.0 °F 90% 30.24 in 10.0 mi Calm Calm - N/A   Clear
6:53 PM 48.0 °F 45.0 °F 89% 30.24 in 10.0 mi North 3.5 mph - N/A   Clear
7:53 PM 46.9 °F 44.1 °F 90% 30.24 in 10.0 mi NW 5.8 mph - N/A   Clear
8:53 PM 48.9 °F 44.1 °F 83% 30.23 in 10.0 mi WNW 4.6 mph - N/A   Overcast
9:53 PM 46.0 °F 41.0 °F 83% 30.22 in 10.0 mi Calm Calm - N/A   Mostly Cloudy
10:53 PM 44.1 °F 39.9 °F 85% 30.20 in 10.0 mi Calm Calm - N/A   Clear
11:53 PM 43.0 °F 39.9 °F 89% 30.20 in 10.0 mi Calm Calm - N/A   Clear